Temperature
16 16 16 16 16 16 15 15 15 15 15 15 15 15 15 15 15 15 15 15 15 15 14 14 14 14 14 15 15 14 14 14 14 14 14 14 14 14 14 14 14 14 14
16 16 16 16 15 15 15 15 15 15 15 15 14 14 15 15 14 14 14 14 14 14 14 14 14 14 14 14 14 14 14 14 14 14 14 14 14 14 14 14 14 14 14
16 16 16 15 15 15 15 15 15 14 14 14 14 14 14 14 14 14 14 14 14 14 14 14 14 14 14 14 14 14 14 14 14 13 13 13 14 13 14 14 13 13 13
15 15 15 15 15 15 15 15 15 14 14 14 14 14 14 14 14 14 14 14 14 14 14 14 14 14 14 14 14 14 14 14 13 13 13 13 13 13 13 13 13 13 13
15 15 15 15 15 15 15 14 14 14 14 14 14 13 13 14 14 14 14 14 14 14 14 14 14 14 14 14 14 14 14 13 13 13 13 13 13 13 13 13 13 13 13
15 15 15 15 15 15 14 14 14 14 14 14 14 13 13 13 13 14 14 14 14 14 14 14 14 14 14 14 14 14 13 13 13 13 13 13 13 13 12 12 12 12 12
14 14 15 14 14 14 14 14 14 14 14 14 14 13 13 13 13 13 14 14 14 13 13 14 14 14 14 14 14 14 13 13 13 13 13 13 13 12 12 12 12 12 12
14 14 14 14 14 14 14 14 14 14 13 13 13 13 13 13 13 13 13 13 13 13 13 13 13 13 14 14 14 13 13 13 12 12 12 12 12 12 12 12 12 12 12
14 13 14 13 13 14 14 14 13 13 13 13 13 13 13 13 13 13 13 13 13 13 13 13 13 13 13 13 13 13 13 13 12 12 12 12 12 12 12 11 11 11 11
13 13 13 13 13 13 13 13 13 13 13 13 13 13 13 13 13 13 13 13 13 13 13 13 13 13 13 13 13 13 13 12 12 12 12 12 12 11 11 11 11 11 11
13 13 13 13 13 13 13 13 13 13 12 12 12 12 12 12 12 12 13 13 13 12 12 13 13 13 13 13 12 12 12 12 12 12 12 12 11 11 11 11 11 11 11
13 12 12 12 12 12 12 12 12 12 12 12 12 12 12 12 12 12 12 12 12 12 12 12 12 12 12 12 12 12 12 12 11 11 11 11 11 11 11 11 11 11 11
12 12 12 12 12 12 12 12 12 12 12 12 12 12 12 12 12 12 12 12 12 12 12 12 12 12 12 12 12 12 11 11 11 11 11 11 11 11 11 11 10 11 11
12 12 12 12 12 12 12 11 11 11 11 11 11 11 11 12 12 12 12 12 12 12 12 12 12 12 11 11 11 11 11 11 11 11 11 11 11 10 10 10 10 10 10
12 12 12 12 12 11 11 11 11 11 11 11 11 11 11 11 11 11 12 12 12 12 12 12 11 11 11 11 11 11 11 11 11 11 10 10 10 10 10 10 10 10 10
12 12 11 11 11 11 11 11 11 11 11 11 11 11 11 11 11 11 11 11 11 11 11 11 11 11 11 11 11 11 11 11 10 10 10 10 10 10 10 10 10 10 10
12 11 11 11 11 11 11 11 10 10 10 10 10 10 11 11 11 11 11 11 11 11 11 11 11 11 11 11 11 11 10 10 10 10 10 10 10 10 10 10 9 9 9
11 11 11 11 11 11 10 10 10 10 10 10 10 10 10 11 11 11 11 11 11 11 11 11 11 11 11 10 10 10 10 10 10 10 9 9 9 9 9 9 9 9 9
11 11 11 11 10 10 10 10 10 10 10 10 10 10 10 10 10 10 10 10 10 10 10 10 10 10 10 10 10 10 10 10 9 9 9 9 9 9 9 9 9 9 8
11 10 10 10 10 10 10 10 9 9 9 9 9 10 10 10 10 10 10 10 10 10 10 10 10 10 9 9 9 9 9 9 9 9 9 8 8 8 8 8 8 8 8
10 10 10 10 9 9 9 9 9 9 9 9 9 9 9 9 10 10 10 10 9 10 9 9 9 9 9 9 9 9 9 8 8 8 8 8 8 8 8 8 8 8 8
10 10 9 9 9 9 9 9 9 9 8 9 9 9 9 9 9 9 9 9 9 9 9 9 9 9 8 8 8 7 7 7 8 7 7 7 8 7 7 7 7 7 7
9 9 9 9 9 9 9 8 8 8 8 8 8 8 8 9 9 9 9 9 9 9 9 8 8 8 8 8 7 7 7 6 7 7 7 7 7 7 7 7 7 7 7
9 8 8 8 8 8 8 8 8 8 8 8 8 8 8 8 8 8 8 8 8 8 8 8 8 8 8 8 7 7 7 6 6 6 6 6 6 6 6 6 6 6 6
8 8 8 8 7 7 7 8 8 8 8 8 8 8 8 8 8 8 8 8 8 8 8 8 8 7 7 7 7 7 6 6 6 6 5 6 6 6 6 6 6 6 6
7 7 7 7 7 7 7 7 7 7 7 7 7 7 7 7 7 7 8 8 8 8 8 8 7 7 7 7 6 6 6 6 6 5 5 5 5 5 5 5 5 5 6
Wind_Speed
7 10 11 10 10 11 11 10 10 10 10 9 9 9 9 9 9 10 10 10 11 11 11 11 12 12 12 12 12 13 13 13 14 14 14 14 14 14 14 13 13 12 13
10 12 11 11 11 11 11 11 11 10 10 9 9 9 8 9 9 9 10 10 10 10 11 11 11 11 11 11 12 12 12 11 11 12 13 13 13 13 14 14 13 12 13
11 12 11 12 12 11 11 11 11 10 10 9 9 8 8 9 9 9 9 9 9 9 10 10 9 10 11 10 11 10 10 9 9 9 11 11 11 12 13 13 12 12 13
11 12 11 12 12 11 11 10 11 10 9 9 9 8 9 9 10 9 9 9 9 9 9 9 9 10 10 10 9 9 9 8 7 7 8 10 10 11 12 12 11 12 12
10 12 12 13 12 11 11 10 10 10 9 9 8 8 8 9 9 9 8 9 8 8 8 9 8 9 9 9 8 8 7 6 7 7 9 11 11 10 11 11 11 11 11
9 12 13 13 12 12 11 10 10 9 9 8 8 8 8 8 8 7 7 8 8 8 8 8 8 8 8 8 7 7 6 5 6 6 9 11 10 10 10 10 9 9 10
8 11 13 13 12 11 11 10 10 9 9 8 8 8 9 8 8 7 7 7 8 7 7 7 7 7 7 7 6 5 5 5 5 6 9 10 9 9 9 9 9 9 9
8 10 12 13 12 11 11 10 10 9 9 8 8 8 8 8 7 7 7 7 7 6 7 7 6 6 7 6 5 4 4 4 4 5 8 9 8 8 7 8 8 8 8
8 9 9 10 11 11 11 10 10 10 9 8 7 7 7 6 6 7 7 7 6 6 6 6 5 6 6 5 4 3 3 4 5 4 6 8 7 6 6 6 6 6 7
7 7 7 8 9 9 9 10 10 9 9 8 7 7 6 5 6 6 6 6 6 5 5 5 5 5 5 4 3 2 2 3 4 5 6 7 6 5 5 5 5 6 6
6 6 6 6 7 8 8 9 10 9 9 8 7 7 5 4 4 5 6 6 5 5 5 5 4 4 4 3 2 1 1 2 2 3 6 6 5 5 5 4 4 5 5
6 6 6 6 6 7 7 8 8 7 7 7 6 5 4 4 3 4 5 5 5 5 4 4 4 4 3 3 2 1 1 1 2 3 5 6 5 4 4 3 3 4 4
7 6 6 5 6 6 5 5 5 5 6 6 6 5 4 4 4 4 4 4 3 3 3 2 2 3 2 2 2 1 1 1 2 3 4 5 4 3 3 2 3 3 3
7 7 6 6 6 6 6 4 4 4 4 4 5 5 4 3 3 3 2 3 2 2 2 2 0 1 1 1 2 2 2 1 2 3 4 4 3 2 2 2 2 2 2
7 7 7 7 7 6 5 4 4 4 4 5 5 5 5 3 2 2 2 2 2 2 2 1 1 1 1 1 1 2 2 2 2 2 3 3 2 1 1 2 2 2 2
6 7 7 7 6 6 5 4 4 4 5 5 4 5 5 4 3 2 2 2 2 2 2 1 1 1 1 1 1 2 2 2 3 3 3 3 1 1 0 2 2 2 2
6 6 7 7 6 6 6 5 4 5 5 4 4 5 5 4 3 3 2 1 1 2 2 1 1 2 1 1 1 1 2 3 2 2 3 2 2 1 0 1 2 3 3
6 6 7 7 7 7 5 5 4 5 5 5 5 5 5 4 4 3 2 2 2 2 2 2 1 1 1 1 1 1 1 2 2 1 1 2 2 2 1 1 2 3 4
6 6 6 6 8 7 6 5 5 4 4 5 5 5 5 5 4 3 2 2 2 1 1 2 2 2 1 1 1 1 1 1 1 1 1 2 2 2 2 0 1 2 3
6 6 6 5 6 6 6 4 4 4 4 4 4 5 6 5 4 4 3 3 3 2 1 1 2 2 1 1 2 2 1 1 0 1 1 2 2 2 1 1 1 1 3
5 6 6 5 5 5 5 5 5 4 4 4 4 5 6 5 5 4 2 3 3 2 1 2 2 2 1 1 2 1 2 1 0 0 1 2 2 1 2 1 1 1 2
5 6 6 6 6 6 5 5 4 4 3 4 3 4 6 6 6 4 3 3 3 2 2 2 3 2 1 1 1 1 0 1 2 1 0 1 1 1 1 1 1 1 1
5 5 6 6 6 6 5 4 4 3 3 3 4 4 4 5 6 5 4 3 3 3 3 3 3 3 2 0 0 2 1 1 1 1 1 1 1 0 0 0 0 1 1
4 4 5 6 6 6 6 6 6 6 5 4 4 4 4 5 6 6 5 4 3 3 3 3 3 3 3 2 0 0 1 1 1 1 2 1 1 1 1 0 1 0 1
3 4 4 5 5 5 6 7 6 4 3 3 4 5 5 4 5 6 6 5 4 3 3 3 2 2 3 3 2 0 1 1 1 1 2 2 2 2 1 1 0 0 1
2 3 4 5 5 5 6 6 6 6 4 5 5 5 4 3 3 4 5 5 4 4 4 4 4 3 3 2 2 1 1 1 1 1 2 2 2 3 2 1 0 0 1
Wind_Direction
120 125 134 129 122 119 117 115 114 113 110 107 107 105 104 106 105 105 105 98 93 90 88 84 80 77 75 72 71 71 70 69 70 68 69 70 69 67 64 62 65 63 67
125 129 135 131 126 121 119 116 115 113 111 109 107 106 105 107 109 107 105 102 98 92 89 85 83 80 78 76 75 73 72 72 71 72 72 69 68 68 64 63 66 67 69
123 127 131 130 128 125 120 118 117 114 111 108 107 107 107 108 109 109 106 103 100 97 93 88 86 84 80 79 78 75 72 70 69 70 75 73 69 69 68 67 68 67 68
119 124 128 126 125 125 123 121 119 116 114 109 107 106 106 108 107 105 105 103 99 97 95 91 90 89 84 82 81 78 72 64 57 59 66 73 71 72 73 69 67 67 66
116 123 125 127 124 123 123 124 121 120 119 114 110 110 110 110 107 103 103 103 99 95 94 92 92 93 90 87 84 79 70 55 50 51 63 71 70 72 72 70 68 66 63
116 119 126 128 125 123 124 123 124 122 121 117 112 111 111 111 110 108 107 108 103 98 95 94 92 91 91 91 87 80 62 45 46 48 69 74 73 72 70 70 68 67 63
118 118 130 132 129 126 124 123 123 124 122 117 113 108 105 107 108 108 108 107 103 102 101 95 94 94 91 89 89 78 50 42 48 54 71 79 76 71 67 64 64 65 63
121 120 130 135 133 131 129 125 122 120 120 118 116 114 110 107 109 108 106 106 103 100 102 100 96 99 97 92 87 69 36 26 33 62 72 80 81 74 67 64 63 62 60
121 122 126 134 135 135 132 129 127 123 119 117 115 113 113 113 112 117 111 111 112 109 106 107 104 106 103 99 90 61 24 15 11 43 75 80 84 77 71 67 64 61 56
126 128 131 134 136 133 133 134 131 127 122 118 115 112 114 119 115 120 118 120 124 122 120 119 112 112 111 111 102 68 9 12 16 36 69 86 91 79 68 62 61 59 54
131 134 136 138 136 134 136 137 133 129 125 122 122 121 119 109 112 118 120 124 131 135 127 128 130 133 133 137 144 135 44 40 29 49 78 93 89 73 60 54 49 50 46
153 148 146 144 138 137 140 136 138 137 136 133 132 130 124 115 119 125 130 133 137 142 139 144 158 165 166 174 177 167 99 73 41 73 89 94 84 60 41 40 39 37 34
164 158 154 150 142 138 132 137 134 137 138 137 134 131 122 114 112 108 115 126 138 144 139 147 176 186 184 160 148 157 105 78 64 68 88 94 78 50 30 30 28 20 16
169 165 159 153 149 145 142 142 138 132 125 125 133 138 120 102 102 101 108 123 136 130 123 121 148 193 181 170 163 138 110 95 83 83 91 92 79 51 7 3 7 356 356
177 170 166 160 158 152 148 152 149 142 134 132 134 144 136 120 121 116 103 105 118 117 104 79 38 33 15 64 77 75 73 87 96 95 99 101 95 67 2 350 336 325 344
183 173 168 164 159 154 155 158 154 146 139 136 138 145 143 134 131 123 110 99 94 105 113 102 89 67 24 39 69 64 60 62 88 97 99 110 111 163 339 343 346 340 356
185 176 168 169 161 161 162 161 152 146 141 139 142 144 143 136 132 128 125 120 114 116 112 86 61 71 75 78 57 49 67 73 75 80 89 110 116 106 94 21 4 358 350
181 177 175 172 163 165 162 159 153 153 148 146 145 146 146 138 132 120 119 112 102 111 113 126 126 92 67 84 67 27 54 76 86 78 76 98 105 99 86 54 10 348 341
181 173 173 170 167 166 162 159 156 152 149 146 143 145 145 141 141 126 119 115 106 106 115 138 120 111 90 69 73 45 25 42 93 99 105 104 100 108 110 96 349 338 331
171 166 165 168 165 164 161 158 153 153 156 148 145 147 145 146 142 127 122 122 112 110 118 121 120 99 104 96 58 31 351 314 136 137 128 99 91 88 87 69 49 349 324
159 165 166 167 168 164 164 166 166 170 163 154 150 149 151 152 146 135 129 128 128 135 142 129 113 106 91 87 68 21 341 312 204 152 118 100 95 80 59 42 40 35 341
166 167 165 171 177 174 171 173 170 162 158 153 144 146 150 151 152 154 149 151 149 145 140 136 125 121 114 97 120 112 353 342 343 299 189 168 137 102 79 49 22 7 345
174 174 176 171 178 176 165 152 150 137 134 150 158 160 157 157 157 154 156 152 156 158 166 162 154 142 158 233 144 144 151 221 303 288 246 201 182 202 137 76 356 324 335
174 170 169 171 180 177 169 167 172 173 174 176 168 164 160 161 161 159 160 158 158 157 166 171 165 156 154 176 268 287 183 173 169 290 303 288 250 250 255 17 10 295 303
155 160 168 168 171 171 173 171 174 175 168 152 157 161 164 166 166 163 165 164 167 167 171 168 161 156 165 170 173 196 307 321 213 197 261 289 308 294 274 244 177 326 302
135 156 165 170 173 174 177 174 175 177 169 162 166 167 166 164 169 167 169 169 171 168 170 174 169 170 178 173 166 152 170 194 242 229 250 273 284 287 285 279 242 268 288
Height
1504 1505 1507 1508 1510 1511 1513 1515 1516 1518 1519 1520 1522 1522 1523 1524 1525 1526 1527 1528 1529 1529 1530 1530 1531 1531 1531 1532 1532 1533 1533 1533 1534 1534 1534 1534 1535 1535 1535 1535 1536 1536 1537
1503 1504 1506 1508 1510 1512 1513 1515 1517 1518 1519 1521 1522 1523 1524 1525 1526 1527 1527 1528 1529 1530 1530 1531 1532 1532 1532 1533 1533 1534 1534 1535 1535 1535 1535 1535 1536 1536 1536 1536 1537 1537 1537
1502 1504 1506 1508 1510 1511 1513 1515 1517 1518 1519 1521 1522 1523 1524 1525 1526 1527 1528 1528 1529 1530 1531 1531 1532 1533 1533 1533 1534 1534 1535 1536 1536 1536 1536 1536 1537 1537 1537 1537 1538 1538 1538
1502 1504 1506 1508 1510 1511 1513 1515 1517 1518 1519 1521 1522 1523 1524 1525 1526 1527 1528 1529 1530 1531 1531 1532 1533 1533 1533 1534 1534 1535 1536 1537 1537 1537 1537 1537 1537 1538 1538 1538 1538 1538 1538
1502 1504 1505 1507 1509 1511 1513 1515 1516 1518 1519 1521 1522 1523 1524 1525 1526 1527 1528 1529 1530 1531 1532 1532 1533 1534 1534 1534 1535 1536 1536 1537 1538 1538 1538 1538 1538 1538 1538 1538 1539 1539 1539
1502 1503 1505 1507 1509 1511 1513 1515 1516 1518 1519 1520 1522 1523 1524 1525 1526 1527 1528 1529 1529 1530 1532 1532 1533 1534 1534 1535 1535 1536 1537 1538 1538 1538 1539 1539 1539 1539 1539 1539 1539 1539 1539
1502 1503 1505 1507 1509 1511 1513 1514 1516 1517 1519 1520 1521 1523 1524 1525 1526 1527 1528 1528 1529 1530 1532 1532 1533 1534 1534 1535 1536 1536 1537 1538 1538 1539 1539 1539 1539 1539 1539 1539 1539 1539 1539
1501 1503 1504 1506 1508 1510 1512 1514 1515 1517 1518 1519 1521 1522 1523 1524 1525 1526 1527 1528 1529 1530 1531 1532 1533 1533 1534 1535 1535 1536 1537 1538 1538 1539 1539 1539 1540 1540 1540 1540 1540 1540 1540
1501 1502 1503 1505 1507 1509 1511 1513 1514 1516 1517 1519 1520 1521 1523 1524 1525 1526 1527 1528 1529 1530 1531 1532 1532 1533 1534 1534 1535 1536 1537 1538 1538 1539 1539 1539 1539 1540 1540 1540 1540 1540 1540
1500 1501 1503 1504 1506 1508 1510 1512 1513 1515 1516 1518 1519 1520 1522 1523 1524 1525 1526 1527 1528 1529 1530 1531 1532 1532 1533 1534 1535 1535 1536 1537 1538 1538 1539 1539 1539 1539 1539 1539 1539 1539 1539
1499 1500 1501 1503 1504 1506 1508 1510 1512 1514 1515 1517 1518 1519 1521 1522 1523 1524 1525 1526 1528 1528 1529 1530 1531 1532 1533 1533 1534 1535 1536 1536 1537 1537 1538 1538 1539 1539 1539 1539 1539 1539 1538
1497 1498 1500 1501 1503 1505 1507 1508 1510 1512 1514 1515 1517 1518 1519 1520 1522 1523 1524 1525 1526 1527 1528 1529 1530 1531 1532 1532 1533 1534 1535 1535 1536 1536 1537 1537 1538 1538 1538 1538 1538 1538 1537
1495 1496 1498 1499 1501 1503 1505 1506 1508 1510 1512 1513 1515 1516 1517 1519 1520 1521 1523 1524 1525 1526 1527 1528 1529 1530 1531 1531 1532 1533 1533 1534 1535 1535 1536 1536 1536 1537 1537 1537 1537 1536 1536
1493 1494 1496 1497 1499 1501 1502 1504 1506 1508 1510 1511 1513 1514 1515 1517 1518 1520 1521 1522 1523 1524 1525 1526 1527 1528 1529 1530 1531 1531 1532 1532 1533 1534 1534 1535 1535 1535 1535 1535 1535 1535 1535
1490 1491 1493 1495 1496 1498 1500 1502 1504 1506 1507 1509 1511 1512 1513 1515 1516 1518 1519 1520 1521 1522 1523 1524 1525 1527 1527 1528 1529 1530 1530 1530 1531 1532 1532 1533 1533 1533 1534 1534 1534 1534 1533
1487 1488 1490 1492 1494 1496 1497 1499 1501 1503 1505 1507 1509 1510 1511 1513 1514 1515 1517 1518 1519 1520 1521 1523 1523 1524 1525 1526 1527 1528 1528 1529 1529 1530 1530 1531 1531 1531 1531 1531 1532 1531 1531
1483 1485 1487 1488 1491 1493 1495 1497 1499 1501 1503 1504 1506 1508 1509 1510 1512 1513 1515 1516 1517 1518 1519 1520 1521 1522 1523 1524 1525 1526 1526 1527 1527 1528 1529 1529 1529 1529 1529 1529 1529 1529 1529
1480 1481 1483 1485 1487 1489 1492 1494 1496 1498 1500 1502 1504 1505 1507 1508 1509 1511 1512 1513 1514 1515 1517 1518 1519 1520 1520 1521 1522 1523 1524 1524 1525 1526 1526 1527 1527 1527 1527 1527 1527 1527 1526
1476 1477 1479 1481 1483 1486 1488 1491 1493 1495 1497 1499 1501 1502 1504 1505 1507 1508 1510 1511 1512 1513 1514 1515 1516 1517 1518 1519 1520 1521 1521 1522 1523 1523 1524 1524 1524 1525 1524 1524 1524 1524 1524
1472 1473 1475 1477 1479 1482 1485 1488 1490 1492 1494 1496 1498 1500 1501 1503 1504 1505 1507 1509 1510 1511 1512 1513 1514 1515 1516 1517 1517 1518 1519 1520 1521 1521 1522 1522 1522 1522 1522 1522 1521 1521 1521
1468 1470 1471 1473 1476 1479 1481 1483 1486 1488 1491 1493 1495 1497 1499 1500 1501 1503 1504 1506 1508 1509 1510 1510 1511 1513 1514 1514 1515 1515 1517 1518 1518 1518 1519 1519 1520 1520 1520 1519 1519 1518 1518
1464 1466 1468 1469 1472 1475 1477 1480 1483 1486 1488 1490 1492 1494 1496 1497 1499 1500 1502 1504 1505 1507 1507 1508 1509 1510 1511 1513 1513 1514 1514 1516 1515 1516 1516 1517 1517 1517 1517 1516 1516 1515 1515
1460 1462 1464 1466 1469 1472 1474 1477 1480 1483 1485 1487 1489 1491 1493 1494 1496 1497 1499 1501 1502 1504 1505 1505 1506 1507 1509 1510 1511 1513 1513 1512 1513 1513 1514 1514 1514 1514 1514 1513 1513 1512 1512
1457 1459 1461 1464 1466 1468 1471 1473 1476 1478 1480 1482 1485 1487 1489 1491 1493 1494 1496 1498 1499 1500 1502 1503 1504 1505 1506 1507 1508 1510 1511 1511 1511 1510 1511 1511 1511 1511 1511 1510 1510 1510 1509
1455 1457 1458 1461 1462 1464 1467 1470 1472 1475 1477 1480 1482 1484 1486 1488 1490 1491 1493 1494 1496 1497 1499 1500 1501 1502 1503 1504 1505 1506 1507 1508 1509 1509 1507 1507 1508 1508 1508 1507 1507 1507 1506
1452 1454 1455 1458 1459 1461 1464 1467 1469 1471 1474 1476 1478 1481 1483 1485 1486 1488 1489 1491 1493 1494 1495 1496 1498 1499 1500 1501 1502 1503 1504 1505 1505 1506 1505 1504 1504 1504 1505 1504 1504 1503 1503